Weather Roundup
Issued by NWS Corpus Christi, TX

Home | Current Version | Previous Version | Text Only | Print | Product List | Glossary On
Versions: 1 2 3 4 5 6 7 8 9 10 11 12 13 14 15 16 17 18 19 20 21 22 23 24 25 26 27 28 29 30 31 32 33 34 35 36 37 38 39 40 41 42 43 44 45 46 47 48 49 50
000
ASUS44 KCRP 242310
HRRCRP

SOUTH TEXAS REGIONAL WEATHER ROUNDUP
NATIONAL WEATHER SERVICE CORPUS CHRISTI TX
600 PM CDT THU JUL 24 2014


TXZ229>244-250000-
...CORPUS CHRISTI AREA OBSERVATIONS...

CITY           SKY/WX    TMP DP  RH WIND       PRES   REMARKS
CORPUS CHRISTI PTSUNNY   90  69  50 E12       29.93F HX  94
NAS CORPUS CHR PTSUNNY   88  72  58 SE14      29.93F HX  94
ROCKPORT       PTSUNNY   87  74  64 SE13      29.93F HX  95
KINGSVILLE NAS PTSUNNY   90  72  55 SE13G20   29.92F HX  97
ALICE          MOSUNNY   95  69  42 SE12      29.92S HX 100
FALFURRIAS     PTSUNNY   89  66  46 SE10      29.92R HX  91
$$

...VICTORIA AREA OBSERVATIONS...

CITY           SKY/WX    TMP DP  RH WIND       PRES   REMARKS
VICTORIA       MOSUNNY   95  69  42 SE8       29.93F HX 100
BEEVILLE       FAIR      93  66  41 SE10      29.93F HX  95
PLEASANTON     MOSUNNY   95  64  35 N9        29.93F HX  96
SAN ANTONIO    MOSUNNY   92  67  43 SE10G17   29.95F HX  95
$$

...LAREDO AREA OBSERVATIONS...

CITY           SKY/WX    TMP DP  RH WIND       PRES   REMARKS
LAREDO         PTSUNNY   99  67  35 E14       29.93S HX 103
COTULLA        PTSUNNY   93  67  42 E13       29.92F HX  96
DEL RIO        PTSUNNY   95  67  39 NE12      29.92F HX  99
MCALLEN        MOSUNNY   98  71  41 E18G26    29.88F HX 106
HEBBRONVILLE   LGT RAIN  84  72  65 NE10      29.94F
$$

...OTHER TEXAS OBSERVATIONS...

CITY           SKY/WX    TMP DP  RH WIND       PRES   REMARKS
BROWNSVILLE    MOSUNNY   91  74  57 SE14G23   29.93S HX 100
HOUSTON        MOSUNNY   89  73  59 SE5       29.93F HX  97
COL. STATION   SUNNY     92  68  45 NE7       29.95F HX  96
AUSTIN         MOSUNNY   92  69  47 E7        29.94F HX  97
WACO           SUNNY     95  68  41 S8        29.94F HX  99
FORT WORTH     SUNNY     95  63  34 E9        29.96F HX  96
WICHITA FALLS  MOSUNNY   94  70  45 E7        29.97F HX 100
LUBBOCK        MOSUNNY   96  54  24 E9        30.08F HX  94
EL PASO        MOSUNNY   97  49  19 S8        30.07F HX  94
$$

...MARINE OBSERVATIONS...

STATION/POSITION TIME  SKY/WX   TEMP    WIND        PRES    VSBY  WAVE   SWELL
                                AIR SEA DIR/SP/G                  HT/PER HT/PER
                 (UTC)          (F)     (DEG/KT/KT) (MB)    (MI)  (FT/S) (FT/S)
PORT ARANSAS     2300            83 88  110/  9/ 10 1014.6F
BUOY 90 E PORT A 2300            82 84   CALM  /  6 1014.7F         1/ 4
BUOY 45 SE BAFFI 2300            83 84  110/ 10/ 12 1013.7F         1/ 8
BUOY 200 E PT IS 2300            84 86   CALM  /  2 1015.0F         1/ 8
BUOY 15 E GALVES 2300            84 88              1014.3F
$$


USA.gov is the U.S. government's official web portal to all federal, state and local government web resources and services.